www.pogodaiklimat.ru

ПОГОДА в Морристауне, NJ

  • Прогноз погоды в Морристауне
  • Монитор погоды в Морристауне
  • Климат в Морристауне

АРХИВ ПОГОДЫ в Морристауне

Время (UTC), дата Ветер
(напр.,м/с)
 
Видим.   Явления Облачность Т
(С)
Тd
(С)
f
(%)
Тe
(С)
Тes
(С)
Комфортность

P
(гПа)

Po
(гПа)
Тmin
(С)
Tmax
(С)
R
(мм)
SD
(см)
22:50 20.03 Ю  4
{8} 
16 км    8/0 7500 м
[верхняя] 
+7.0  -2.0  53  +3  +3      1018.4         
23:45 20.03 Ю  6
{8} 
16 км    8/0 7500 м
[верхняя] 
+7.0  0.0  61  +3  +3      1018.7         
00:45 21.03 Ю  16 км    8/0 7500 м
[верхняя] 
+6.0  0.0  65  +2  +2      1018.7         
01:35 21.03   16 км    ясно  +5.0  0.0  70  +4  +4      1018.4         
01:55 21.03   16 км    ясно  +5.0  0.0  70  +4  +4      1018.4         
02:15 21.03   16 км    5/5 1500 м  +5.0  0.0  70  +4  +4      1018.0         
02:35 21.03   16 км    10/10 1500 м  +4.0  0.0  75  +3  +3      1018.0         
02:55 21.03   16 км    10/10 1440 м  +4.0  0.0  75  +3  +3      1018.0         
03:15 21.03   16 км    10/10 1320 м  +4.0  0.0  75  +3  +3      1018.0         
03:35 21.03   16 км    10/10 1260 м  +4.0  +1.0  81  +3  +3      1017.7         
03:55 21.03   16 км    10/10 1200 м  +4.0  +1.0  81  +3  +3      1017.0         
04:15 21.03   16 км    10/10 1200 м  +4.0  +1.0  81  +3  +3      1016.7         
04:35 21.03   16 км    10/10 1200 м  +4.0  +1.0  81  +3  +3      1016.7         
04:55 21.03   16 км    10/10 1200 м  +4.0  +2.0  87  +3  +3      1016.7         
05:15 21.03   16 км    10/10 1140 м  +4.0  +1.0  81  +3  +3      1016.3         
05:35 21.03   16 км    10/10 1140 м  +4.0  +2.0  87  +3  +3      1016.0         
05:55 21.03   16 км    10/10 1140 м  +5.0  +2.0  81  +4  +4      1015.7         
06:15 21.03   16 км    10/10 1140 м  +5.0  +2.0  81  +4  +4      1015.7         
06:35 21.03   16 км    10/10 1140 м  +5.0  +2.0  81  +4  +4      1015.0         
06:55 21.03   16 км    10/10 1140 м  +5.0  +2.0  81  +4  +4      1015.0         
07:15 21.03   16 км    10/10 1140 м  +5.0  +2.0  81  +4  +4      1014.3         
07:35 21.03   16 км    10/10 1080 м  +5.0  +2.0  81  +4  +4      1014.3         
07:55 21.03   16 км    10/10 1080 м  +5.0  +2.0  81  +4  +4      1014.3         
08:15 21.03   16 км  дождь  10/10 1080 м  +5.0  +2.0  81  +4  +4      1014.3         
08:35 21.03   16 км  слабый дождь  10/10 1020 м  +5.0  +3.0  87  +4  +4      1014.3         
08:55 21.03   16 км    10/10 960 м  +5.0  +3.0  87  +4  +4      1013.7         
09:15 21.03   16 км    10/10 960 м  +5.0  +3.0  87  +4  +4      1013.7         
09:35 21.03   16 км    10/10 900 м  +5.0  +3.0  87  +4  +4      1013.7         
09:45 21.03 СВ  5 км  слабый дождь  8/8 870 м  +5.0  +3.0  87  +3  +3      1013.7         
09:48 21.03 СВ  5 км  слабый дождь, дымка  8/8 870 м  +5.0  +3.0  87  +3  +3      1013.7         
10:15 21.03 СВ  5 км  слабый дождь, дымка  8/8 330 м  +5.0  +3.0  87  +4  +4      1013.7         
10:25 21.03 СВ  3 км  слабый дождь, дымка  10/10 330 м  +4.0  +4.0  100  +3  +3      1013.7         
10:49 21.03 СВ  3 км  слабый дождь, дымка  10/10 210 м  +4.0  +4.0  100  +1  +1      1014.0         
11:45 21.03 СВ  4 км  слабый дождь, дымка  10/10 210 м  +5.0  +4.0  93  +1  +1      1013.3         
12:47 21.03 СВ  н/о  дымка  10/10 180 м  +5.0  +5.0  100  +2  +2      1012.6         
14:45 21.03 СВ  н/о  слабый дождь, дымка  10/10 120 м  +6.0  +6.0  100  +2  +2      1012.0         
15:05 21.03 СВ  5 км  слабый дождь, дымка  10/10 210 м  +7.0  +7.0  100  +4  +4      1010.6         
16:45 21.03 В  3 км  слабый дождь  10/10 180 м  +8.0  +7.0  93  +4  +4      1010.0         
16:50 21.03 В  3 км  морось  10/10 180 м  +8.0  +8.0  100  +4  +4      1009.0         
17:45 21.03 В  4
{8} 
3 км  слабый дождь  10/10 300 м  +8.0  +7.0  93  +4  +4      1007.3         
18:15 21.03 В  4
{7} 
3 км  дождь  10/10 180 м  +8.0  +7.0  93  +4  +4      1006.9         
18:50 21.03 В  3 км  слабый дождь  10/10 270 м  +8.0  +7.0  93  +4  +4      1006.3         
19:45 21.03 В  3 км  дождь  10/10 270 м  +7.0  +7.0  100  +3  +3      1005.6         
20:50 21.03 В  3 км  дождь  10/10 270 м  +7.0  +7.0  100  +2  +2      1003.6         
21:45 21.03 В  6
{8} 
3 км  слабый дождь  10/10 270 м  +6.0  +6.0  100  +1  +1      1003.2         
22:50 21.03 В  7
{10} 
6 км  слабый дождь  10/10 360 м  +6.0  +5.0  93  0  0      1001.6         
22:58 21.03 В  7
{10} 
6 км  слабый дождь  10/10 360 м  +6.0  +5.0  93  0  0      1001.6         
23:45 21.03 В  8 км  слабый дождь  10/10 360 м  +6.0  +5.0  93  +2  +2      1000.9         

 

Местоположение метеостанции Morristown Municipal Airport: широта 40.8000 долгота -74.4167 высота над уровнем моря 57 м.

В архиве по умолчанию представлена погода в Морристауне за последние 1-2 суток. Обновление информации о фактической погоде в базе происходит ежечасно! Архивные данные за месяц целиком и за предыдущие месяцы Вы можете получить, выбрав интересующий диапазон дат из раскрывающегося списка и нажав кнопку "Ввод!".

Внимание! Архив погоды МЕТАР в базе сайта хранится не более 60 дней. Нет смысла пытаться выбрать более раннюю дату.

Внимание! Время в таблицах - всемирное. Для получения местного времени необходимо прибавить поправку, которая в Морристауне равна -5 ч.

Ветер - указаны скорость ветра в м/с и направление, откуда дует ветер: С - северный, СВ - северо-восточный, В - восточный, ЮВ - юго-восточный, Ю - южный, ЮЗ - юго-западный, З - западный, СЗ - северо-западный.
Видимость - горизонтальная дальность видимости в метрах или километрах. При видимости от 1 до 10 км при отсутствии осадков обычно наблюдается дымка, при ухудшении видимости до 1 км и менее - туман. В сухую погоду видимость может ухудшаться дымом, пылью или мглою.
Атмосферные явления - указаны явления, наблюдавшиеся в указанный момент времени.
Облачность - указаны через наклонную черту верхняя и нижняя облачность в баллах и высота нижней границы облаков в метрах. Внимание: облачность, как и прочие метеорологические величины в США измеряются автоматическими метеостанциями. Указанные значения в баллах носят условный характер и показывают процент времени, в течение которого, в среднем, лазерный луч высотомера отражался от облаков обратно.
T - Температура воздуха - температура, измеренная на высоте 2 м над землей.
Td - Температура точки росы - температура, при понижении до которой содержащийся в воздухе водяной пар достигнет насыщения.
f - Относительная влажность воздуха - влажноcть воздуха, измеренная на высоте 2 м над землей.
Te - Эффективная температура - температура, которую ощущает одетый по сезону человек в тени. Характеристика душности погоды. При расчете учитывается влияние влажности воздуха и скорости ветра на теплоощущения человека.
Tes - Эффективная температура на солнце - температура, которую ощущает человек, с поправкой на солнечный нагрев. Характеристика знойности погоды. Зависит от высоты солнца над горизонтом, облачности и скорости ветра. Ночью, в пасмурную погоду, а также при ветре 12 м/с и более поправка равна нулю.
P - Атмосферное давление - приведенное к уровню моря атмосферное давление.
Po - Атмосферное давление - измеренное на уровне метеостанции атмосферное давление.
Tmin - Минимальная температура - минимум температуры воздуха на высоте 2 м над землей.
Tmax - Максимальная температура - максимум температуры воздуха на высоте 2 м над землей.
R - Количество осадков - Количество выпавших осадков за 3 или 6 часов, мм.
SD - Снежный покров - Высота снежного покрова, см.